FALCON 9 DEB (53645 NORAD) Tracking and Keplerian Element Data

This shows tracking and keplerian element data for the satellite.

Feedback or suggestion? Click here.




ElementValue
Catalog53645
NameFALCON 9 DEB
Epoch Orbit118
Epoch Day247.39496731
Epoch Year2022
RAAN251.7587
Inclination53.2178
Eccentricity0.0062018
Argument of Perigee68.1697
Mean Anonmoly292.5919
Mean Motion16.04039124
Decay Rate0.00665579
L11 53645U 22104BK 22247.39496731 .00665579 22355-3 78003-3 0 9990
L22 53645 53.2178 251.7587 0062018 68.1697 292.5919 16.04039124 1187



Live tracking and technical data element details for FALCON 9 DEB (NORAD 53645). FALCON 9 DEB can be tracked NOW for your location showing map with azimuth and elevation plus other details from your city location.







IsCatalogInMostPopularTable: catalog: 53645, numindb: 4
Update: records affected: 1



GetName: 53645 FALCON 9 DEB

Hit Count: updated at: Thu, 08 Dec 2022 19:02:37 GMT